Overview Statistics Trail Chart Weather Telemetry Raw packets
 

This is the latest recevied weather packets stored in our database for station/object HG5CJW-10. If no packets are shown the sender has not sent any weather packets the latest 10 day(s).

<< 21 22 23 24 25 26 27 >>
Time Temp. Humidity Pressure Rain* Wind** Luminosity Snow
1788101200 28.89° C 41% 1034.9 hPa - - - -
1788100300 28.89° C 41% 1035.1 hPa - - - -
1788099400 28.89° C 41% 1035 hPa - - - -
1788098500 28.33° C 41% 1035.1 hPa - - - -
1788097600 28.33° C 41% 1035.2 hPa - - - -
1788096700 28.33° C 41% 1035.3 hPa - - - -
1788095800 28.33° C 41% 1035.4 hPa - - - -
1788094900 27.78° C 41% 1035.5 hPa - - - -
1788093999 27.78° C 41% 1035.3 hPa - - - -
1788093094 27.78° C 42% 1035.7 hPa - - - -
1788092194 27.22° C 42% 1035.7 hPa - - - -
1788091294 27.22° C 42% 1035.8 hPa - - - -
1788090394 26.67° C 42% 1036.1 hPa - - - -
1788089494 26.67° C 42% 1036 hPa - - - -
1788088604 26.11° C 43% 1036 hPa - - - -
1788087694 26.11° C 43% 1036.4 hPa - - - -
1788086794 25.56° C 44% 1036.5 hPa - - - -
1788085893 25° C 44% 1036.4 hPa - - - -
1788084993 25° C 45% 1036.4 hPa - - - -
1788084093 24.44° C 45% 1036.5 hPa - - - -
1788083193 23.89° C 45% 1036.7 hPa - - - -
1788082298 23.89° C 46% 1036.8 hPa - - - -
1788081393 23.33° C 47% 1036.7 hPa - - - -
1788080493 22.22° C 47% 1036.2 hPa - - - -
1788079588 22.22° C 48% 1036.8 hPa - - - -

* Rain since midnight (hover to see other rain measurements)
** Current wind speed in m/s (hover to see current wind gust speed)